Location: Wangen+im+Allg�u
(47.7098°N, 9.8383°E)
Time: 06:52:00
(UTC+01:00)

ISS - Pass Details

Date: 11 November 2017
Orbit: 401 x 407 km, 51.6° (Epoch: 25 November)

Event Time Altitude Azimuth Distance (km) Brightness Sun altitude
Exits shadow 06:42:59 - 293° (WNW) 1,554 -1.6 -6.6°
Reaches altitude 10° 06:43:13 10° 293° (WNW) 1,457 -1.7 -6.6°
Maximum altitude 06:46:29 82° 207° (SSW) 410 -3.8 -6.1°
Drops below altitude 10° 06:49:44 10° 118° (ESE) 1,452 0.8 -5.6°
Sets 06:51:48 0° 118° (ESE) 2,309 2.5 -5.2°
